Wind_Speed
15 15 15 18 19 21 23 29 27 31 31 23 23 26 26 29 25 22 19 22 21 23 24 22 20 13 16 14 11 13 12 11 11 18 22 23 26 28 26 29 25 25 23 25
12 14 22 27 26 25 27 24 32 34 38 31 24 19 23 23 24 22 19 21 26 24 23 25 25 22 18 18 17 15 18 20 19 22 22 25 24 26 26 25 25 24 23 24
5 6 8 17 29 24 26 28 28 33 35 30 33 28 23 23 24 24 24 25 29 26 24 27 28 25 24 19 20 21 21 23 26 28 27 25 26 26 27 27 26 25 27 28
9 7 3 19 13 15 23 31 30 35 41 34 37 35 35 27 25 26 26 27 27 29 32 32 31 30 24 22 22 24 25 27 28 31 30 25 25 27 27 28 29 31 31 32
8 8 20 35 24 17 27 36 33 36 40 25 25 37 45 37 30 25 23 25 27 25 24 27 27 29 26 27 28 29 29 28 26 30 29 27 26 27 30 31 34 35 35 35
7 2 5 19 14 16 12 30 19 23 26 23 14 28 41 41 37 33 27 23 20 19 25 28 30 30 30 29 31 30 30 29 29 32 29 28 28 29 31 33 35 36 37 38
17 10 17 21 14 16 5 15 23 24 28 30 23 19 22 27 42 44 36 33 24 23 24 25 26 30 31 31 28 27 28 31 32 32 30 29 31 33 33 33 34 35 36 36
16 10 13 1 11 10 21 26 33 26 24 29 32 25 21 16 21 32 42 36 30 25 28 31 34 34 33 30 26 27 30 32 34 33 32 32 32 31 29 30 32 34 34 35
17 15 12 17 23 21 23 28 30 30 22 25 20 15 20 18 14 16 21 28 28 33 33 35 36 33 24 24 26 28 33 34 34 32 31 30 29 27 30 32 32 34 36 37
27 32 30 31 30 30 30 27 25 24 31 19 9 10 15 18 22 20 19 21 24 24 18 15 14 16 20 24 28 31 32 33 33 31 31 30 29 31 32 33 34 36 36 37
31 33 29 26 29 35 32 24 32 25 26 18 10 9 15 18 18 20 23 21 20 17 19 18 21 24 26 28 28 27 29 31 31 31 30 28 28 29 31 33 34 36 37 38
33 28 28 26 24 24 24 26 28 22 23 19 16 17 12 17 19 22 26 26 26 23 21 22 25 27 26 25 24 27 28 29 29 28 27 27 28 30 31 33 34 36 38 40
40 38 37 38 37 29 28 27 21 21 19 21 22 20 22 21 19 24 26 34 32 32 26 28 31 31 29 26 25 27 27 27 27 26 25 27 28 30 33 35 35 36 37 38
37 35 32 27 26 25 27 29 27 25 24 26 23 21 22 23 24 23 25 26 30 31 35 32 34 30 26 25 27 27 28 26 25 25 26 26 27 28 28 28 28 30 32 34
27 25 22 23 26 27 24 30 27 26 25 24 22 20 19 21 22 21 20 20 19 20 23 29 34 31 28 28 27 29 27 26 25 24 23 23 23 24 25 28 30 33 35 36
32 35 31 29 29 28 26 27 25 24 23 25 26 25 24 22 21 21 24 22 23 21 20 27 27 29 25 30 28 26 24 25 25 22 22 23 25 28 30 30 31 32 31 30
29 31 34 33 32 33 36 26 23 23 24 23 25 25 23 22 20 18 20 23 26 27 29 28 28 24 27 29 30 26 21 19 19 21 24 25 26 26 26 25 25 25 26 28
25 24 21 23 24 26 28 23 22 24 22 23 27 20 20 18 18 18 17 18 20 24 22 21 18 18 16 15 14 16 19 20 21 21 21 21 21 20 21 22 25 27 30 34
26 22 19 21 18 20 23 24 25 25 24 25 27 22 16 18 20 21 18 17 19 18 17 14 12 12 13 15 16 17 17 17 17 16 17 19 21 24 26 29 32 34 37 40
13 14 17 19 20 21 20 20 19 20 18 17 17 16 15 15 11 6 4 5 7 7 8 10 12 13 13 13 13 13 15 17 20 22 25 27 30 32 34 36 38 39 40 42
7 6 7 6 5 5 3 2 3 3 4 3 4 2 2 2 1 2 3 4 5 5 6 6 8 9 12 15 18 20 22 25 28 30 32 33 35 36 37 37 37 37 37 38
8 8 9 9 8 7 10 11 10 10 9 7 5 5 6 5 5 5 5 7 9 11 13 15 17 19 21 23 25 26 28 29 31 32 32 32 32 32 33 33 34 35 35 35
15 14 14 13 13 13 11 10 9 8 7 5 5 6 6 7 9 11 12 14 16 17 19 20 22 23 25 27 28 29 29 28 28 28 28 29 30 30 31 32 32 32 32 32
11 10 9 9 9 8 6 5 5 5 6 7 8 9 11 12 14 16 17 18 19 21 22 23 24 25 25 25 25 25 25 26 26 27 27 27 28 28 29 29 29 30 30 30
6 4 3 3 4 4 6 7 9 10 12 13 14 15 16 18 19 20 21 22 23 24 23 23 22 22 22 22 23 24 25 25 25 26 26 27 27 28 28 29 29 29 28 28
1 3 5 7 9 10 11 13 13 14 15 16 17 19 20 21 22 23 23 23 22 20 19 20 20 21 22 22 23 23 24 25 25 25 25 25 26 26 27 27 27 26 25 24
7 9 10 11 12 13 13 14 15 15 16 18 19 20 20 21 20 19 17 17 17 18 18 19 19 19 20 21 21 22 23 23 23 24 24 24 25 25 25 25 25 25 25 24
Wind_Direction
282 282 291 297 307 299 301 302 285 288 286 295 291 285 286 273 273 266 267 249 234 258 252 235 247 258 253 259 251 228 233 260 297 279 271 265 260 261 255 246 253 259 253 249
274 276 283 291 283 289 300 310 293 292 285 286 287 290 269 268 261 248 263 261 246 249 251 249 254 263 268 256 261 263 258 267 281 294 289 263 260 261 255 246 244 244 253 253
271 278 255 269 284 288 287 293 291 300 291 284 277 281 279 266 265 262 267 260 258 256 249 254 254 268 272 267 266 272 274 276 282 289 297 273 261 262 257 252 250 252 252 257
262 275 212 278 279 276 286 289 287 292 295 282 269 267 275 259 259 254 260 265 255 260 252 256 253 265 264 260 264 260 268 269 279 284 292 272 263 258 258 256 256 255 255 258
242 223 273 282 283 268 294 290 283 277 287 282 274 256 254 267 257 265 267 263 262 254 256 253 253 249 259 261 260 259 268 266 275 283 281 269 265 262 260 257 256 254 257 260
216 230 240 282 308 312 296 281 284 281 302 265 292 264 259 258 260 259 264 259 251 262 262 252 250 242 255 261 257 258 264 265 274 279 271 266 265 263 260 257 255 253 256 260
236 245 268 282 313 308 306 311 318 336 297 256 264 275 288 267 258 259 255 260 261 262 257 253 245 246 249 258 253 254 255 262 271 270 267 267 264 263 263 261 257 255 256 258
221 228 262 247 329 324 314 317 314 308 289 263 252 263 273 293 283 260 250 249 252 263 262 261 253 251 256 247 245 250 256 265 266 262 268 272 271 267 262 256 253 252 251 253
229 248 261 291 293 303 318 308 320 305 317 258 260 287 283 277 273 258 249 246 246 249 254 253 251 253 234 237 248 257 261 262 263 268 275 279 273 265 256 252 249 251 254 257
247 252 259 265 274 284 300 302 305 295 313 259 267 287 297 287 269 267 260 251 260 247 232 230 235 240 246 250 255 258 261 264 268 272 274 272 262 253 251 251 255 260 262 264
263 275 272 278 280 272 285 287 292 297 292 264 289 322 299 285 277 265 257 230 231 230 236 241 247 254 262 262 263 262 263 269 274 278 276 269 262 258 258 260 262 264 266 267
260 265 270 281 284 286 278 280 287 283 284 318 336 303 295 295 283 269 249 233 229 235 239 237 242 249 258 259 262 267 270 274 277 278 277 272 268 266 266 268 270 272 272 273
250 255 267 276 279 279 275 276 285 293 293 308 313 302 310 288 291 292 285 267 267 252 238 239 245 251 258 262 267 271 274 278 281 282 282 280 280 282 282 283 281 280 278 277
255 257 258 265 270 276 278 276 285 291 296 295 299 289 283 287 277 279 280 277 255 245 245 243 236 248 252 260 267 272 277 278 282 285 286 287 289 288 285 281 280 280 280 280
253 253 261 272 279 282 269 278 284 292 294 291 290 292 296 287 286 279 277 267 266 274 269 269 263 266 272 270 273 278 278 277 277 275 268 262 265 270 276 281 281 280 280 281
257 265 266 269 273 272 276 275 280 286 288 292 283 275 276 274 273 271 268 278 269 274 280 278 262 260 274 272 265 257 250 251 252 254 263 277 285 288 287 285 284 285 286 286
260 260 262 263 266 273 279 280 279 279 288 288 281 271 271 270 271 267 261 267 273 271 266 256 257 263 276 269 261 254 254 268 280 286 286 285 285 285 284 285 286 287 288 290
249 255 265 264 268 272 266 272 276 276 284 285 276 257 262 273 278 276 280 284 287 283 271 257 258 260 259 262 272 281 285 287 289 290 290 290 290 291 291 292 293 294 294 293
252 257 270 271 268 274 276 277 277 279 281 282 286 297 290 281 277 270 260 266 268 263 266 267 274 281 286 288 289 289 290 291 293 294 294 295 295 296 297 296 296 295 295 295
260 263 273 281 282 275 284 279 273 276 278 276 270 271 264 255 243 245 264 291 291 289 294 290 288 288 289 293 296 298 300 301 301 302 303 302 301 299 299 298 298 297 297 297
260 276 280 274 278 270 242 163 104 117 113 104 73 51 44 31 40 345 327 317 310 308 304 304 307 309 309 308 307 307 306 305 304 303 301 301 302 302 301 301 301 301 301 300
100 95 95 89 86 97 92 84 79 73 71 70 69 63 52 33 21 8 353 343 334 325 318 316 314 312 311 309 307 306 305 305 304 304 305 305 305 305 305 305 304 304 306 307
90 88 88 90 86 80 75 76 74 71 63 49 28 9 348 328 319 316 316 317 316 315 314 313 312 310 308 308 308 308 308 309 310 310 311 311 311 311 311 311 312 312 312 311
93 89 80 73 65 55 34 13 2 350 334 324 321 317 315 314 314 316 316 316 314 313 312 312 311 311 312 314 315 316 316 315 315 315 315 315 315 315 316 317 317 316 316 316
101 90 66 37 15 344 328 325 324 323 321 321 320 319 319 319 318 318 317 316 315 314 315 315 316 317 318 319 319 319 319 319 321 320 319 319 319 320 320 320 320 320 319 319
334 350 340 329 324 322 320 319 319 319 319 319 317 315 314 313 312 312 311 312 313 315 315 316 318 320 321 320 320 319 319 319 318 317 316 317 318 320 323 323 323 323 322 321
329 323 318 315 312 312 313 313 313 313 312 310 309 308 308 309 309 310 313 315 317 317 318 318 318 318 317 316 316 316 316 315 315 315 317 319 322 325 326 327 326 325 323 322
Height
3019 3021 3020 3020 3021 3022 3022 3022 3020 3016 3017 3021 3022 3024 3025 3027 3029 3030 3030 3031 3032 3034 3035 3037 3039 3040 3042 3044 3043 3044 3046 3047 3048 3049 3049 3049 3049 3049 3050 3051 3052 3054 3053 3055
3013 3015 3017 3013 3016 3017 3017 3016 3011 3009 3005 3014 3016 3015 3016 3019 3020 3021 3023 3025 3027 3029 3030 3031 3032 3034 3036 3037 3038 3039 3039 3040 3040 3040 3041 3041 3041 3041 3042 3042 3043 3045 3046 3048
3008 3010 3013 3010 3008 3010 3010 3010 3007 3003 3001 3004 3006 3008 3010 3013 3014 3015 3016 3018 3019 3021 3022 3024 3025 3027 3028 3030 3031 3032 3032 3031 3032 3032 3031 3031 3033 3033 3034 3035 3037 3038 3039 3040
3008 3009 3010 3000 3002 3003 3001 3001 3001 2998 2997 2996 2996 3000 3002 3004 3005 3007 3009 3010 3011 3012 3014 3016 3018 3019 3021 3021 3023 3024 3025 3025 3025 3024 3023 3023 3023 3025 3026 3027 3028 3029 3031 3031
3004 3004 3001 2994 2994 2996 2995 2989 2993 2989 2987 2986 2985 2986 2985 2994 2998 3000 3002 3002 3002 3004 3006 3008 3009 3011 3013 3014 3015 3017 3018 3019 3018 3016 3015 3015 3015 3016 3017 3018 3019 3020 3021 3021
3000 3002 3000 2988 2988 2989 2987 2984 2984 2981 2980 2981 2978 2976 2978 2989 2989 2991 2994 2994 2994 2995 2997 2998 3001 3002 3004 3005 3006 3008 3010 3011 3010 3009 3007 3006 3006 3006 3007 3008 3009 3009 3011 3011
2997 2999 2988 2983 2985 2985 2986 2987 2983 2978 2976 2974 2974 2972 2971 2974 2974 2980 2984 2986 2986 2987 2989 2991 2992 2994 2995 2996 2997 3000 3001 3001 3001 3001 3000 2999 2998 2998 2998 2997 2998 2999 3000 3001
2994 2994 2987 2981 2982 2984 2984 2979 2976 2974 2973 2966 2967 2966 2965 2965 2965 2965 2969 2974 2977 2977 2980 2982 2983 2984 2986 2986 2989 2991 2992 2991 2991 2990 2991 2989 2988 2988 2989 2989 2990 2990 2991 2991
2983 2979 2979 2977 2977 2978 2977 2975 2972 2968 2967 2958 2960 2960 2960 2959 2961 2960 2961 2964 2966 2968 2970 2971 2972 2974 2976 2977 2979 2981 2982 2982 2982 2981 2979 2979 2979 2979 2980 2981 2982 2982 2982 2982
2977 2971 2973 2974 2973 2974 2972 2970 2967 2964 2957 2955 2952 2954 2954 2955 2955 2956 2957 2957 2958 2959 2960 2963 2965 2967 2969 2970 2971 2972 2973 2973 2972 2971 2971 2970 2970 2972 2972 2972 2973 2974 2973 2973
2967 2967 2967 2968 2968 2966 2966 2965 2963 2958 2955 2952 2948 2948 2948 2949 2949 2950 2952 2952 2953 2953 2953 2956 2959 2961 2961 2963 2964 2964 2963 2963 2962 2961 2961 2961 2962 2963 2963 2964 2964 2963 2963 2962
2961 2961 2961 2963 2962 2962 2960 2958 2957 2952 2951 2948 2942 2943 2943 2944 2944 2944 2945 2946 2946 2947 2949 2950 2952 2953 2954 2953 2953 2954 2953 2952 2952 2951 2951 2952 2952 2952 2953 2953 2953 2952 2951 2950
2953 2955 2955 2955 2956 2957 2955 2953 2951 2946 2947 2945 2941 2940 2939 2939 2939 2940 2940 2941 2941 2942 2941 2942 2944 2945 2945 2944 2943 2944 2943 2943 2942 2942 2943 2943 2942 2942 2943 2942 2941 2940 2939 2938
2946 2948 2950 2949 2949 2948 2947 2946 2945 2944 2942 2941 2939 2937 2937 2937 2936 2936 2935 2935 2935 2934 2935 2934 2932 2934 2933 2934 2935 2935 2934 2933 2933 2933 2934 2935 2935 2934 2934 2934 2933 2932 2932 2930
2939 2942 2943 2944 2943 2943 2941 2941 2940 2940 2937 2936 2935 2934 2932 2931 2930 2930 2929 2928 2927 2927 2926 2925 2924 2924 2922 2923 2923 2925 2926 2926 2928 2928 2928 2928 2926 2925 2925 2925 2924 2922 2920 2919
2938 2936 2937 2938 2937 2938 2936 2935 2934 2933 2933 2931 2929 2928 2927 2926 2925 2923 2923 2922 2920 2919 2919 2919 2917 2916 2916 2916 2916 2917 2918 2918 2919 2919 2919 2920 2919 2918 2917 2915 2913 2912 2912 2910
2929 2929 2929 2928 2929 2929 2928 2927 2928 2927 2925 2923 2922 2921 2920 2919 2917 2916 2915 2915 2914 2913 2912 2911 2912 2912 2913 2912 2912 2912 2913 2914 2914 2914 2913 2913 2912 2910 2909 2908 2906 2904 2903 2902
2922 2922 2921 2922 2921 2921 2921 2921 2921 2920 2919 2917 2916 2912 2912 2912 2911 2910 2909 2909 2909 2909 2907 2906 2907 2907 2906 2906 2907 2908 2909 2910 2909 2908 2907 2906 2905 2904 2902 2901 2900 2898 2896 2894
2916 2916 2916 2915 2915 2914 2914 2913 2912 2913 2913 2912 2911 2910 2908 2908 2907 2906 2905 2905 2905 2905 2905 2905 2905 2905 2905 2905 2905 2905 2905 2904 2903 2902 2902 2901 2899 2897 2896 2894 2891 2889 2887 2883
2910 2910 2910 2909 2909 2909 2909 2908 2907 2907 2906 2905 2906 2906 2906 2905 2905 2905 2903 2903 2903 2904 2903 2903 2903 2902 2902 2901 2901 2900 2900 2899 2898 2897 2896 2894 2892 2890 2888 2885 2882 2879 2875 2871
2907 2906 2905 2905 2905 2905 2906 2906 2906 2904 2902 2903 2904 2906 2906 2903 2904 2904 2903 2902 2902 2901 2901 2901 2900 2900 2899 2898 2897 2896 2895 2894 2893 2891 2889 2886 2883 2880 2877 2874 2870 2867 2863 2859
2906 2907 2907 2907 2907 2907 2907 2907 2906 2905 2905 2905 2907 2907 2905 2906 2906 2905 2903 2902 2901 2901 2900 2899 2897 2896 2895 2894 2893 2891 2890 2888 2886 2883 2880 2877 2874 2870 2867 2864 2860 2856 2852 2848
2911 2911 2911 2912 2911 2911 2911 2911 2910 2909 2908 2909 2908 2907 2907 2907 2907 2906 2902 2899 2898 2898 2897 2894 2893 2891 2890 2888 2886 2884 2882 2879 2877 2874 2871 2868 2865 2862 2858 2854 2850 2846 2842 2838
2916 2916 2916 2914 2913 2913 2913 2912 2911 2910 2909 2908 2907 2907 2907 2906 2904 2901 2898 2896 2895 2894 2892 2889 2887 2885 2883 2881 2879 2877 2874 2872 2869 2866 2863 2860 2857 2853 2850 2846 2842 2838 2834 2830
2919 2918 2917 2916 2915 2915 2914 2913 2911 2910 2908 2907 2906 2905 2903 2901 2900 2896 2894 2892 2890 2888 2886 2883 2881 2880 2878 2876 2873 2871 2868 2866 2863 2860 2856 2853 2850 2847 2843 2839 2835 2831 2827 2824
2918 2917 2916 2915 2914 2913 2912 2910 2909 2907 2906 2904 2903 2901 2899 2897 2894 2892 2890 2887 2885 2883 2882 2879 2877 2875 2873 2871 2868 2866 2863 2860 2857 2854 2851 2848 2844 2840 2836 2832 2828 2824 2821 2818
2916 2916 2915 2914 2913 2911 2910 2908 2907 2905 2903 2901 2899 2897 2895 2893 2891 2888 2886 2884 2882 2880 2878 2876 2874 2872 2870 2867 2864 2861 2858 2855 2852 2849 2845 2841 2838 2834 2830 2826 2822 2818 2815 2812